NIMBUS 2 DEB, 28977

Orbit data source: Space-Track

NIMBUS 2 DEB, 28977 is space debris in SSO originally from a launch on Sun, 15 May 1966 UTC launched from the Air Force Western Test Range (AFWTR). Debris objects in space refer to the collection of defunct objects orbiting the Earth. Examples of debris include non-operational satellites, rocket bodies, and fragments generated from explosions, collisions, or faulty payload assembly.

Loading next visibility...
Identifier
28977, 1966-040AN
Orbit
SSO
Country
Flag of USUS
Related business
Manufacturer
Unknown
Mission
Spacecraft
Bus & Motor
Unknown
Mass
Unknown
Launch date (UTC)
1966-05-15 (59 years ago)
Launch vehicle
Unknown
Launch site
Air Force Western Test Range (AFWTR)
Object type
Payload
Rocket body
Debris
Shape & HBR
Unknown
Radar Cross Section
Small (<0.1 m²)

Expand to show TLE details & history
Last TLE update: 1 day ago

TLE from 1 day ago
0 NIMBUS 2 DEB
1 28977U 66040AN  25260.33348436  .00001772  00000-0  27305-2 0  9994
2 28977 100.4699 202.6928 0058352   0.7631 150.9643 13.52301585975959
Epoch: 2025-09-17T08:00Z
TLE epoch observation values (Epoch: 2025-09-17T08:00:13.048Z)
Latitude
27.48539°
Longitude
-88.38394°
Altitude
1,105.065 km
Speed
7.284 km/s
True Right ascension
01h 52m 43s
True Declination
27° 21' 05"
Sunlit
Object was in full shadow at epoch
Visualization orbit readout
Latitude
Unknown
Longitude
Unknown
Altitude
Unknown
Speed
Unknown
Apparent Right ascension
Unknown
Apparent Declination
Unknown
Sunlit
N/A
Visualization observer readout
Local Sidereal Time
09:45:48
Azimuth
Unknown
Elevation
Unknown
Doppler factor
Unknown
Orbital elements
Apogee altitude
1,104.551 km
Perigee altitude
1,017.732 km
Semi-major axis
7,439.279 km
Eccentricity
0.00584
Inclination
100.4699°
RAAN
202.6928°
Arg. of periapsis
0.7631°
True anomaly
151.28678°
Mean anomaly
150.9643°
Eccentric anomaly
151.12575°
Mean motion
3.38257 °/min
Orbital period
106.43 mins
BSTAR
0.0027305
Loading maneuver chart data...
Computing Atmospheric mass density...
Loading historical data...
Loading historical data...
Loading historical data...
Loading historical data...
Loading historical data...
Loading historical data...
Loading historical data...

Documentation

Showing up to 5 results
|